CW8427 Weather Reports


Display with metric or nautical units.
time (UTC)temp
F
wind
direction
speed
MPH
gust
MPH
rain 1hr
in
rain 24hr
in
rain mn
in
humidity
%
barometer
mb
20260505101616 58 54 4.0 5.0 0.00 0.01 0.00 56 1007.4
20260505100621 58 161 2.0 3.0 0.00 0.01 0.00 54 1007.4
20260505095629 58 170 3.0 7.0 0.00 0.01 0.00 54 1007.5
20260505094633 59 178 4.0 8.0 0.00 0.01 0.00 54 1007.5
20260505093634 59 196 5.0 10.0 0.00 0.01 0.00 53 1007.6
20260505092636 59 182 6.0 12.0 0.00 0.01 0.00 53 1007.6
20260505091630 59 169 5.0 11.0 0.00 0.01 0.00 53 1007.6
20260505090627 59 163 6.0 11.0 0.00 0.01 0.00 53 1007.6
20260505085650 59 168 8.0 13.0 0.00 0.01 0.00 53 1007.6
20260505084632 59 196 5.0 11.0 0.00 0.01 0.00 53 1007.6
20260505083633 59 148 4.0 9.0 0.00 0.01 0.00 53 1007.6
20260505082634 59 181 8.0 12.0 0.00 0.01 0.00 53 1007.6
20260505081619 59 184 7.0 10.0 0.00 0.01 0.00 54 1007.7
20260505080621 59 178 8.0 15.0 0.00 0.01 0.00 54 1007.8
20260505075622 59 144 8.0 12.0 0.00 0.01 0.00 55 1008.0
20260505074623 59 155 4.0 11.0 0.00 0.01 0.00 55 1008.1
20260505073625 60 150 8.0 12.0 0.00 0.01 0.00 55 1008.3
20260505072627 60 165 5.0 11.0 0.00 0.01 0.00 56 1008.4
20260505071650 60 115 7.0 15.0 0.00 0.01 0.00 56 1008.4
20260505070631 60 161 7.0 14.0 0.00 0.01 0.00 56 1008.4
20260505065632 60 215 8.0 13.0 0.00 0.01 0.00 56 1008.4
20260505064618 61 181 10.0 19.0 0.00 0.01 0.00 54 1008.5
20260505063635 61 184 12.0 18.0 0.00 0.01 0.00 53 1008.4
20260505062639 61 153 12.0 18.0 0.00 0.01 0.00 52 1008.3
20260505061639 62 218 4.0 10.0 0.00 0.01 0.00 50 1008.3
20260505060643 62 259 7.0 9.0 0.00 0.01 0.00 48 1008.0
20260505055623 63 249 5.0 10.0 0.00 0.01 0.01 47 1007.8
20260505054625 63 268 6.0 9.0 0.00 0.01 0.01 45 1007.7
20260505053632 63 186 4.0 6.0 0.00 0.01 0.01 44 1007.4
20260505052634 64 191 3.0 7.0 0.00 0.01 0.01 43 1007.3
20260505051619 64 209 4.0 11.0 0.00 0.01 0.01 43 1007.2
20260505050642 64 178 6.0 15.0 0.00 0.01 0.01 42 1007.1
20260505041636 64 136 3.0 7.0 0.00 0.01 0.01 40 1006.5
20260505040623 63 232 5.0 9.0 0.00 0.01 0.01 41 1006.2
20260505035623 63 196 1.0 2.0 0.00 0.01 0.01 42 1006.0
20260505034625 64 196 0.0 1.0 0.00 0.01 0.01 39 1005.9
20260505033628 65 196 1.0 3.0 0.00 0.01 0.01 38 1005.9
20260505032650 66 196 2.0 3.0 0.00 0.01 0.01 37 1005.6
20260505031617 66 198 1.0 2.0 0.00 0.01 0.01 35 1005.5
20260505030619 67 198 1.0 4.0 0.00 0.01 0.01 35 1005.4
20260505025620 68 211 4.0 7.0 0.00 0.01 0.01 34 1005.3
20260505024621 68 198 4.0 8.0 0.00 0.01 0.01 33 1005.2
20260505023623 68 174 3.0 7.0 0.00 0.01 0.01 33 1005.2
20260505022627 69 205 3.0 6.0 0.00 0.01 0.01 32 1005.0
20260505021628 69 193 4.0 7.0 0.00 0.01 0.01 31 1004.9
20260505020650 70 237 4.0 8.0 0.00 0.01 0.01 31 1004.8
20260505015636 70 208 4.0 8.0 0.00 0.01 0.01 30 1004.7
20260505014617 71 213 7.0 10.0 0.00 0.01 0.01 29 1004.7
20260505013625 71 157 6.0 9.0 0.00 0.01 0.01 29 1004.7
20260505012626 71 197 5.0 12.0 0.00 0.01 0.01 29 1004.7
20260505011626 71 173 8.0 14.0 0.00 0.01 0.01 30 1004.9
20260505010630 72 184 6.0 11.0 0.00 0.01 0.01 29 1004.9
20260505005633 72 205 9.0 14.0 0.00 0.01 0.01 28 1005.0
20260505004636 73 173 8.0 15.0 0.00 0.01 0.01 27 1004.9
20260505003636 73 211 6.0 10.0 0.00 0.01 0.01 27 1005.0
20260505002619 73 260 7.0 11.0 0.00 0.01 0.01 27 1005.0
20260505001620 73 224 8.0 15.0 0.00 0.01 0.01 28 1005.2
20260505000620 73 255 9.0 13.0 0.00 0.01 0.01 27 1005.2
20260504235623 73 231 8.0 12.0 0.00 0.01 0.01 27 1005.3
20260504234646 73 257 9.0 14.0 0.00 0.01 0.01 28 1005.3
20260504233626 73 244 13.0 19.0 0.00 0.01 0.01 28 1005.3
20260504232629 74 255 11.0 20.0 0.00 0.01 0.01 28 1005.2
20260504231635 74 244 10.0 21.0 0.00 0.01 0.01 29 1005.3
20260504230656 75 173 11.0 18.0 0.00 0.01 0.01 28 1005.2
20260504225640 75 242 6.0 11.0 0.00 0.01 0.01 24 1005.2
20260504224623 75 261 9.0 13.0 0.00 0.01 0.01 23 1005.2
20260504223627 76 336 3.0 13.0 0.00 0.01 0.01 22 1005.3
20260504222648 76 271 2.0 11.0 0.00 0.01 0.01 23 1005.2
20260504221634 75 278 7.0 11.0 0.00 0.01 0.01 21 1005.4
20260504220618 75 344 6.0 13.0 0.00 0.01 0.01 23 1005.4
20260504215621 75 283 4.0 11.0 0.00 0.01 0.01 21 1005.6
20260504214627 75 311 4.0 10.0 0.00 0.01 0.01 24 1005.7
20260504193632 73 284 1.0 11.0 0.00 0.01 0.01 30 1007.3
20260504192628 73 305 8.0 14.0 0.00 0.01 0.01 32 1007.4
20260504191646 73 271 5.0 9.0 0.00 0.01 0.01 32 1007.5
20260504190627 72 355 4.0 10.0 0.00 0.01 0.01 31 1007.6
20260504185625 72 286 2.0 11.0 0.00 0.01 0.01 33 1007.7
20260504184627 72 324 6.0 9.0 0.00 0.01 0.01 33 1007.8
20260504183624 73 264 9.0 13.0 0.00 0.01 0.01 32 1007.9
20260504182627 72 200 4.0 13.0 0.00 0.01 0.01 29 1008.1
20260504181630 72 281 5.0 9.0 0.01 0.01 0.01 34 1008.2
20260504180616 72 105 3.0 9.0 0.01 0.01 0.01 34 1008.4
20260504175618 71 173 4.0 7.0 0.01 0.01 0.01 34 1008.5